Regional Weather Roundup
Issued by NWS

Home | Current Version | Previous Version | Graphics & Text | Print | Product List | Glossary On
Versions: 1 2 3 4 5 6 7 8 9 10 11 12 13 14 15 16 17 18 19 20 21 22 23 24 25 26 27 28 29 30 31 32 33 34 35 36 37 38 39 40 41 42 43 44 45 46 47 48
000
ASUS45 KBOU 201907
RWRCO

WEATHER ROUNDUP FOR COLORADO
NATIONAL WEATHER SERVICE DENVER/BOULDER CO
100 PM MDT MON OCT 20 2014

NOTE: "FAIR" INDICATES FEW OR NO CLOUDS BELOW 12000 FEET WITH NO
SIGNIFICANT WEATHER AND/OR OBSTRUCTIONS TO VISIBILITY.

COZ001>005-013-030-031-202000-
...NORTHWEST COLORADO...

CITY           SKY/WX    TMP DP  RH WIND       PRES   REMARKS
CRAIG          SUNNY     69  36  29 VRB7      30.17F
HAYDEN         MOSUNNY   64  34  32 W3        30.18F
MEEKER         SUNNY     69  37  30 CALM      30.17F
MOUNT WERNER   NOT AVBL
STEAMBOAT SPGS MOSUNNY   64  35  33 SW6       30.20F
WALDEN         SUNNY     61  30  31 SW7       30.26F
$$

COZ006>008-011-202000-
...WEST CENTRAL VALLEYS...

CITY           SKY/WX    TMP DP  RH WIND       PRES   REMARKS
GRAND JUNCTION MOSUNNY   69  44  40 CALM      30.13F
MONTROSE       SUNNY     69  38  32 N8        30.19F
EAGLE          MOSUNNY   57  36  44 CALM      30.24F
RIFLE          MOSUNNY   63  38  39 SE5       30.16F
DELTA          SUNNY     72  37  28 CALM      30.15F
NUCLA          SUNNY     64  37  36 N5        30.23F
$$

COZ017>023-064>068-202000-
...SOUTHWEST COLORADO...

CITY           SKY/WX    TMP DP  RH WIND       PRES   REMARKS
DURANGO          N/A     63  43  48 VRB5      30.24F
CORTEZ         SUNNY     69  41  36 SW8       30.19F
PAGOSA SPRINGS SUNNY     61  34  36 CALM      30.28F
TELLURIDE      MOSUNNY   56  31  38 CALM      30.35F
WOLF CREEK PAS CLOUDY    41  32  70 MISG      30.49F
$$

COZ009-010-012-014-032>034-037-058>063-202000-
...CENTRAL COLORADO...

CITY           SKY/WX    TMP DP  RH WIND       PRES   REMARKS
ASPEN          MOSUNNY   64  31  28 N6        30.23F
BUENA VISTA    SUNNY     62  33  33 E7        30.28F
COPPER MTN     MOSUNNY   52  28  40 S15G23    30.48F
BERTHOUD PASS  CLOUDY    36  32  87 NW9       30.52F
COTTONWOOD PAS SUNNY     59  32  36 E9        30.37F
GUNNISON       MOSUNNY   61  34  36 E3        30.30F
KREMMLING      MOSUNNY   61  28  29 CALM        N/A
LEADVILLE      MOSUNNY   54  24  31 CALM      30.35F
MONARCH PASS   PTSUNNY   43  30  61 SW10      30.59F
SALIDA         SUNNY     64  34  32 E3        30.33F
SUNLIGHT       CLOUDY    48  34  57 NW3       30.44F
WILKERSON PASS NOT AVBL
$$

COZ069>075-202000-
...SAN LUIS VALLEY/SANGRE DE CRISTO MOUNTAINS...

CITY           SKY/WX    TMP DP  RH WIND       PRES   REMARKS
ALAMOSA        SUNNY     64  35  34 CALM      30.27F
LA VETA PASS   MOSUNNY   54  32  43 NE8       30.41F
SAGUACHE       MOSUNNY   61  34  36 S8        30.31F
$$

COZ035-036-038>040-202000-
...NORTHERN COLORADO FRONT RANGE...

CITY           SKY/WX    TMP DP  RH WIND       PRES   REMARKS
DENVER INTL AP MOSUNNY   76  34  21 S15G22    30.11F
DMNS CITY PARK   N/A     76  31  19 SE2G22    30.08F
AURORA         MOSUNNY   73  35  25 S16       30.13F
FRONT RANGE AP MOSUNNY   75  34  22 S16G25    30.14F
ERIE MUNI ARPT SUNNY     71  38  29 N10       30.09F
BOULDER MUN AP SUNNY     68  37  32 CALM      30.11F
CENTENNIAL     MOSUNNY   72  35  25 S12G22    30.14F
BROOMFIELD     NOT AVBL
FORT COLLINS   SUNNY     68  39  34 SE5       30.12F
LONGMONT       SUNNY     72  38  28 CALM      30.12F
$$

COZ041-046-047-076>085-087-088-202000-
...PIKES PEAK/PALMER DIVIDE AND SOUTHERN FOOTHILLS...

CITY           SKY/WX    TMP DP  RH WIND       PRES   REMARKS
COLO. SPRINGS  MOSUNNY   68  36  30 S12G21    30.22F
A. F. ACADEMY  SUNNY     67  33  27 SE17      30.21F
ELLICOTT       NOT AVBL
FALCON         SUNNY     66  34  30 S16G22    30.25F
FORT CARSON    SUNNY     69  38  31 SE14      30.19F
LIMON          SUNNY     70  33  25 S15G23    30.18F
MONUMENT HILL  SUNNY     64  32  29 S18G28    30.22F
TRINIDAD       SUNNY     69  31  24 VRB6      30.20F
$$

COZ042>045-048>051-090-091-202000-
...NORTHEAST COLORADO...

CITY           SKY/WX    TMP DP  RH WIND       PRES   REMARKS
GREELEY ARPT   SUNNY     70  43  37 E6        30.11F
AKRON          SUNNY     75  33  21 S18       30.13F
BURLINGTON     SUNNY     73  40  30 S15       30.15F
WRAY           SUNNY     78  38  23 SE17G23   30.12F
STERLING       SUNNY     79  43  27 S8        30.08F
HOLYOKE        SUNNY     79  36  21 S12G20    30.11F
FORT MORGAN    SUNNY     77  35  21 S10G20    30.10F
$$

COZ086-089-092>099-202000-
...SOUTHEAST COLORADO...

CITY           SKY/WX    TMP DP  RH WIND       PRES   REMARKS
PUEBLO         SUNNY     70  40  33 SE9       30.15F
LA JUNTA       SUNNY     70  42  36 MISG      30.15F
LAMAR          SUNNY     72  45  37 SE8       30.13F
SPRINGFIELD      N/A     71  47  42 E9G16     30.16F
$$



USA.gov is the U.S. government's official web portal to all federal, state and local government web resources and services.